FW3124 Weather Reports


time (UTC)temp
C
wind
direction
speed
KPH
gust
KPH
rain 1hr
cm
rain 24hr
cm
rain mn
cm
humidity
%
barometer
mb
20260507174541 12 264 0.0 8.0 0.03 0.08 0.08 62 1011.4
20260507173055 12 264 3.2 6.4 0.03 0.08 0.08 65 1011.2
20260507171541 12 264 1.6 4.8 0.03 0.08 0.08 67 1011.3
20260507170049 12 264 3.2 11.3 0.03 0.08 0.08 65 1011.3
20260507164539 12 264 4.8 14.5 0.00 0.05 0.05 57 1011.8
20260507163038 12 264 6.4 17.7 0.00 0.05 0.05 55 1011.9
20260507161544 12 264 6.4 12.9 0.00 0.05 0.05 58 1012.0
20260507160040 12 264 6.4 9.7 0.00 0.05 0.05 56 1012.5
20260507154542 13 264 3.2 14.5 0.00 0.05 0.05 57 1012.4
20260507153037 13 264 11.3 17.7 0.00 0.05 0.05 56 1012.1
20260507151535 13 264 9.7 17.7 0.00 0.05 0.05 59 1012.1
20260507150035 13 264 8.0 16.1 0.00 0.05 0.05 63 1012.2
20260507144532 -17 0.0 0.0 0.00 0.05 0.05 1012.2
20260507143028 -17 0.0 0.0 0.00 0.05 0.05 1012.5
20260507141526 -17 0.0 0.0 0.00 0.05 0.05 1012.5
20260507140019 -17 0.0 0.0 0.00 0.05 0.05 1012.8
20260507134515 -17 0.0 0.0 0.00 0.05 0.05 1012.6
20260507133010 -17 0.0 0.0 0.00 0.05 0.05 1012.6
20260507131508 -17 0.0 0.0 0.00 0.05 0.05 1012.6
20260507130002 -17 0.0 0.0 0.00 0.05 0.05 1012.3
20260507124601 -17 0.0 0.0 0.00 0.05 0.05 1012.3
20260507123056 -17 0.0 0.0 0.00 0.05 0.05 1012.5
20260507121554 -17 0.0 0.0 0.00 0.05 0.05 1012.2
20260507120044 -17 0.0 0.0 0.00 0.05 0.05 1012.2
20260507114540 -17 0.0 0.0 0.00 0.05 0.05 1011.9
20260507113136 -17 0.0 0.0 0.00 0.05 0.05 1011.9
20260507111532 -17 0.0 0.0 0.00 0.05 0.05 1011.6
20260507110027 -17 0.0 0.0 0.00 0.05 0.05 1011.5
20260507104523 -17 0.0 0.0 0.00 0.05 0.05 1011.8
20260507103019 -17 0.0 0.0 0.00 0.05 0.05 1011.6
20260507101517 -17 0.0 0.0 0.00 0.05 0.05 1011.2
20260507100014 -17 0.0 0.0 0.00 0.05 0.05 1011.2
20260507094508 -17 0.0 0.0 0.00 0.05 0.05 1011.1
20260507093008 11 255 0.0 3.2 0.00 0.05 0.05 69 1011.5
20260507091501 12 264 0.0 8.0 0.00 0.05 0.05 70 1011.2
20260507084606 13 264 4.8 11.3 0.00 0.05 0.05 69 1011.2
20260507083056 13 264 4.8 11.3 0.00 0.05 0.05 67 1010.8
20260507081558 13 264 8.0 12.9 0.00 0.05 0.05 67 1010.7
20260507080055 13 264 1.6 16.1 0.00 0.05 0.05 67 1011.3
20260507074551 13 264 4.8 14.5 0.00 0.05 0.05 63 1010.7
20260507073046 14 264 3.2 19.3 0.00 0.05 0.05 59 1010.5
20260507071547 14 264 4.8 16.1 0.00 0.05 0.05 53 1010.0
20260507070100 14 264 4.8 14.5 0.00 0.05 0.05 49 1010.3
20260507064549 15 264 3.2 8.0 0.00 0.05 0.05 47 1010.1
20260507063039 15 264 8.0 17.7 0.00 0.05 0.05 48 1010.0
20260507061536 15 264 8.0 14.5 0.03 0.05 0.05 48 1010.2
20260507060033 16 264 3.2 12.9 0.03 0.05 0.05 44 1010.1
20260507054529 16 264 3.2 8.0 0.05 0.05 0.05 45 1008.7
20260507053028 16 264 3.2 16.1 0.05 0.05 0.05 48 1008.9
20260507051524 17 265 9.7 20.9 0.03 0.03 0.03 51 1008.8
20260507050037 18 267 4.8 11.3 0.03 0.03 0.03 48 1009.6
20260507044517 18 267 3.2 11.3 0.00 0.00 0.00 49 1009.9
20260507043013 18 267 0.0 1.6 0.00 0.00 0.00 55 1009.4
20260507041512 18 267 0.0 1.6 0.00 0.00 0.00 59 1009.3
20260507040005 19 267 0.0 1.6 0.00 0.00 0.00 60 1009.3
20260507034503 19 267 0.0 8.0 0.00 0.00 0.00 62 1009.6
20260507033058 19 267 0.0 4.8 0.00 0.00 0.00 63 1009.3
20260507031553 19 267 0.0 1.6 0.00 0.00 0.00 64 1009.0
20260507030048 19 267 0.0 1.6 0.00 0.00 0.00 63 1009.1
20260507024549 19 267 0.0 4.8 0.00 0.00 0.00 62 1009.3
20260507023039 18 267 0.0 4.8 0.00 0.00 0.00 60 1008.8
20260507021537 18 267 0.0 4.8 0.00 0.00 0.00 59 1008.4
20260507020029 18 267 0.0 1.6 0.00 0.00 0.00 63 1008.5
20260507014528 18 267 0.0 4.8 0.00 0.00 0.00 64 1008.9
20260507013022 18 267 0.0 3.2 0.00 0.00 0.00 66 1008.9
20260507011522 18 267 0.0 1.6 0.00 0.00 0.00 66 1008.9
20260507010020 19 267 0.0 1.6 0.00 0.00 0.00 68 1008.9
20260507004507 19 267 0.0 3.2 0.00 0.00 0.00 68 1008.6
20260507003003 19 267 0.0 3.2 0.00 0.00 0.00 71 1008.7
20260507001607 20 267 0.0 3.2 0.00 0.00 0.00 73 1008.5
20260507000122 20 267 0.0 4.8 0.00 0.00 0.00 74 1008.5
20260506234607 20 267 0.0 4.8 0.00 0.00 0.00 74 1008.6
20260506233050 21 267 0.0 17.7 0.00 0.00 0.00 74 1008.7
20260506231543 21 267 1.6 9.7 0.00 0.00 0.00 74 1007.9
20260506230036 22 267 3.2 14.5 0.00 0.00 0.00 73 1008.2
20260506224534 22 269 1.6 8.0 0.00 0.00 0.00 73 1008.2
20260506223028 22 269 1.6 9.7 0.00 0.00 0.00 73 1008.3
20260506221523 22 269 1.6 8.0 0.00 0.00 0.00 73 1008.3
20260506220019 22 269 3.2 9.7 0.00 0.00 0.00 72 1008.4
20260506214514 22 269 3.2 9.7 0.00 0.00 0.00 71 1008.2
20260506213010 22 269 1.6 9.7 0.00 0.00 0.00 72 1008.2
20260506211506 22 269 1.6 11.3 0.00 0.00 0.00 72 1008.2
20260506210001 22 266 3.2 12.9 0.00 0.00 0.00 72 1008.4
20260506204557 22 266 1.6 9.7 0.00 0.00 0.00 72 1008.2
20260506203053 22 268 4.8 12.9 0.00 0.00 0.00 72 1008.2
20260506201550 22 269 1.6 9.7 0.00 0.00 0.00 73 1008.3
20260506200045 21 269 3.2 14.5 0.00 0.00 0.00 73 1008.2
20260506194542 20 269 3.2 12.9 0.00 0.00 0.00 74 1008.3
20260506193045 20 269 1.6 11.3 0.00 0.00 0.00 74 1008.5
20260506191530 20 269 3.2 9.7 0.00 0.00 0.00 74 1008.6
20260506190024 20 269 4.8 12.9 0.00 0.00 0.00 74 1008.8
20260506184524 20 269 3.2 12.9 0.00 0.00 0.00 74 1008.9
20260506183017 20 269 1.6 12.9 0.00 0.00 0.00 72 1009.1
20260506181530 20 269 3.2 9.7 0.00 0.00 0.00 72 1009.4
20260506180008 19 269 1.6 11.3 0.00 0.00 0.00 73 1009.7